EW9119 Weather Reports


time (UTC)temp
F
wind
direction
speed
knots
gust
knots
rain 1hr
in
rain 24hr
in
rain mn
in
humidity
%
barometer
mb
20260502163031 52 292 0.0 0.0 0.00 0.00 0.00 58 1012.6
20260502161526 52 329 0.0 0.0 0.00 0.00 0.00 56 1012.8
20260502151508 53 327 0.0 0.0 0.00 0.00 0.00 57 1013.2
20260502123021 51 84 0.0 0.0 0.00 0.00 0.00 62 1011.8
20260502121521 51 22 0.0 0.0 0.00 0.00 0.00 54 1012.0
20260502114508 51 262 0.0 0.0 0.00 0.00 0.00 45 1011.8
20260502113012 50 281 0.0 0.0 0.00 0.00 0.00 43 1011.9
20260502111602 50 329 0.0 0.0 0.00 0.00 0.00 31 1011.7
20260502110100 50 351 0.0 0.0 0.00 0.00 0.00 32 1011.8
20260502104553 50 20 0.0 0.0 0.00 0.00 0.00 22 1011.5
20260502103053 50 347 0.0 0.0 0.00 0.00 0.00 9 1011.8
20260502101604 50 288 0.0 0.0 0.00 0.00 0.00 1 1011.7
20260502091524 51 57 0.0 0.0 0.00 0.00 0.00 1 1011.7
20260502070046 52 57 0.0 0.0 0.00 0.00 0.00 1 1010.6
20260502064544 52 57 0.0 0.0 0.00 0.00 0.00 1 1010.9
20260502063039 52 57 0.0 0.0 0.00 0.00 0.00 1 1011.0
20260502061535 52 57 0.0 0.0 0.00 0.00 0.00 1 1011.1
20260502060028 52 57 0.0 0.0 0.00 0.00 0.00 2 1011.3
20260502054524 52 57 0.0 0.0 0.00 0.00 0.00 6 1011.2
20260502053020 52 57 0.0 0.0 0.00 0.00 0.00 9 1011.3
20260501234504 61 312 0.0 0.0 0.00 0.00 0.00 62 1009.2
20260501233059 62 109 0.0 0.0 0.00 0.00 0.00 62 1009.3
20260501231602 63 221 0.0 0.0 0.00 0.00 0.00 61 1009.2
20260501230053 64 139 0.0 0.0 0.00 0.00 0.00 60 1009.2
20260501224558 64 142 0.0 0.0 0.00 0.00 0.00 58 1009.2
20260501223044 65 161 0.0 0.0 0.00 0.00 0.00 57 1009.2
20260501221559 65 203 0.0 0.0 0.00 0.00 0.00 55 1009.2
20260501220043 65 58 0.0 0.0 0.00 0.00 0.00 57 1009.3
20260501214532 66 113 0.0 0.0 0.00 0.00 0.00 54 1009.4
20260501213032 66 302 0.0 0.0 0.00 0.00 0.00 52 1009.5
20260501211522 66 121 0.0 0.0 0.00 0.00 0.00 53 1009.6
20260501210018 66 90 0.0 0.0 0.00 0.00 0.00 51 1009.6
20260501204515 66 80 0.0 0.0 0.00 0.00 0.00 51 1009.7
20260501203010 66 129 0.0 0.9 0.00 0.00 0.00 50 1009.9
20260501201503 66 300 0.0 0.0 0.00 0.00 0.00 51 1010.0
20260501200100 66 184 0.0 0.0 0.00 0.00 0.00 52 1010.5
20260501194556 65 355 0.0 0.9 0.00 0.00 0.00 49 1010.8
20260501193051 65 348 0.0 0.0 0.00 0.00 0.00 48 1010.9
20260501191549 65 118 0.0 0.0 0.00 0.00 0.00 49 1011.3
20260501190056 65 108 0.0 0.0 0.00 0.00 0.00 48 1011.6
20260501184538 65 311 0.0 0.0 0.00 0.00 0.00 47 1011.7
20260501183035 65 86 0.0 0.0 0.00 0.00 0.00 46 1012.0
20260501181530 66 154 0.0 0.0 0.00 0.00 0.00 46 1012.3
20260501180025 66 81 0.0 0.0 0.00 0.00 0.00 47 1012.3
20260501174520 65 298 0.0 0.0 0.00 0.00 0.00 50 1012.6